Flag for Canada Weather past 2 weeks in Whitehorse, Yukon Territory, Canada

Now
48 °F

Mostly cloudy.


Feels Like: 43 °F
Forecast: 41 / 56 °F
Wind: 14 mph from Southeast

Location: Withehorse

Current Time: Sep 18, 2014 at 3:34:08 AM

Latest Report: Sep 18, 2014 at 3:00 AM


Visibility: 15 mi

Pressure: 29.50 "Hg

Humidity: 62%

Dew point: 36 °F

Location of WhitehorseLocation

Historic Weather in Whitehorse — Graph

°F

Whitehorse temperature yesterday

Maximum temperature yesterday: 55 °F (at 2:00 PM)
Minimum temperature yesterday: 32 °F (at 7:00 AM)
Average temperature yesterday: 45 °F

Past Weeks' High & Low Weather Summary

 TemperatureHumidityPressure
High70 °F (Sep 14, 4:00 PM)100% (Sep 5, 7:00 AM)30.41 "Hg (Sep 5, 7:00 AM)
Low30 °F (Sep 9, 7:00 AM)27% (Sep 16, 6:00 PM)29.52 "Hg (Sep 18, 2:00 AM)
Average48 °F73%30.05 "Hg
* Reported Sep 3 2:00 AM — Sep 18 2:00 AM, Whitehorse, Weather by CustomWeather, © 2014

Note: Actual official high and low records may vary slightly from our data, if they occured in-between our weather recording intervals... More about our weather records

Advertising

Whitehorse weather history for previous 24 hours

 ConditionsComfort  
Time TempWeatherWind HumidityBarometerVisibility
2:00 AM
Sep 18
46 °FMostly cloudy.10 mph66%29.52 "Hg15 mi
1:00 AM48 °FMostly cloudy.10 mph62%29.53 "Hg15 mi
12:00 AM48 °FMostly cloudy.10 mph58%29.54 "Hg15 mi
11:00 PM
Sep 17
48 °FMostly cloudy.7 mph62%29.55 "Hg15 mi
10:00 PM48 °FMostly cloudy.14 mph58%29.58 "Hg15 mi
9:00 PM50 °FMostly cloudy.12 mph54%29.59 "Hg15 mi
8:00 PM50 °FPartly sunny.13 mph54%29.59 "Hg40 mi
7:00 PM52 °FPartly sunny.12 mph50%29.61 "Hg40 mi
6:00 PM54 °FPartly sunny.14 mph44%29.60 "Hg40 mi
5:00 PM55 °FPartly sunny.13 mph44%29.61 "Hg40 mi
4:00 PM55 °FOvercast.12 mph44%29.62 "Hg40 mi
3:00 PM55 °FOvercast.13 mph47%29.63 "Hg40 mi
2:00 PM55 °FPartly sunny.16 mph47%29.66 "Hg40 mi
1:10 PM54 °FPartly sunny.14 mph51%29.67 "Hg40 mi
12:00 PM50 °FPartly sunny.12 mph62%29.69 "Hg40 mi
11:00 AM48 °FPassing clouds.7 mph71%29.71 "Hg40 mi
10:00 AM37 °FPassing clouds.No wind87%29.74 "Hg40 mi
9:00 AM34 °FFog.3 mph93%29.75 "Hg40 mi
8:00 AM32 °FFog.2 mph93%29.76 "Hg40 mi
7:00 AM32 °FFog.2 mph87%29.76 "Hg40 mi
6:00 AM34 °FFog.No wind93%29.76 "Hg15 mi
5:00 AM34 °FClear.2 mph93%29.77 "Hg15 mi
4:00 AM36 °FPassing clouds.3 mph81%29.78 "Hg15 mi
3:00 AM36 °FClear.2 mph87%29.79 "Hg15 mi
Weather by CustomWeather, © 2014

See weather overviewHow to use our weather pages